Погода в Туране

Россия / Республика Тыва     52°08′34″N   93°55′23″E
темп.,
°C
ветер,
м/с
пор.,
м/с
влажн.,
%
обл.,
%
осадки,
мм/ч
давл.,
гПа
погр.,
м
7 марта, вс
вс701:00−15всв118472 0.0 102520
04:00−15всв118663 0.0 102320
07:00−15в119081 0.0 102420
10:00−9ююв1191100 0.0 1022167
13:00−6ю2287100 0.0 1020337
16:00−6ююв1284100 0.0 1020313
19:00−9в0190100 0.0 102321
22:00−11св1187100 0.0 102521
8 марта, пн
пн801:00−11юв1186100 0.0 102721
04:00−14всв118574 0.0 102720
07:00−15св118438 0.0 102920
10:00−9юв11850 0.0 1026176
13:00−5ююв12842 0.0 1023334
16:00−3ююв12800 0.0 1020323
19:00−11в11910 0.0 102221
22:00−13всв11860 0.0 102221
9 марта, вт
вт901:00−11в118733 0.0 102221
04:00−10зсз1190100 0.0 102321
07:00−13юз0191100 0.0 102521
10:00−7ююз1190100 0.0 1026171
13:00−5ю228894 0.0 1026257
16:00−3ююв128741 0.0 1026289
19:00−10в119234 0.0 102821
22:00−11св12870 0.0 102921
10 марта, ср
ср1001:00−12св22840 0.0 102921
04:00−13св12840 0.0 102821
07:00−14св11860 0.0 102820
10:00−8ююз11860 0.0 1025139
13:00−4ююз11890 0.0 1022277
16:00−4ююз11881 0.0 1021290
19:00−10в11962 0.0 102221
22:00−12всв12920 0.0 102421
11 марта, чт
чт1101:00−13всв12890 0.0 102321
04:00−14всв11910 0.0 102320
07:00−15св119313 0.0 102320
10:00−8ююв1191100 0.0 1021186
13:00−4ю238789 0.0 1019395
16:00−3ююв1181100 0.0 1019300
19:00−7ссз0188100 0.0 102121
22:00−6ссв1286100 0.0 102126